Time,TemperatureF,DewpointF,PressureIn,WindDirection,WindDirectionDegrees,WindSpeedMPH,WindSpeedGustMPH,Humidity,HourlyPrecipIn,Conditions,Clouds,dailyrainin,SoftwareType,DateUTC
2013-03-03 00:01:00,44.0,25.0,-100.00,WSW,237,7.0,15.0,47,-99.99,,,-99.99,,2013-03-03 08:01:00,
2013-03-03 00:11:00,45.0,27.0,-100.00,SW,220,7.0,16.0,49,-99.99,,,-99.99,,2013-03-03 08:11:00,
2013-03-03 00:21:00,45.0,27.0,-100.00,SW,220,7.0,16.0,49,-99.99,,,-99.99,,2013-03-03 08:21:00,
2013-03-03 00:31:00,45.0,27.0,-100.00,SW,216,7.0,13.0,50,-99.99,,,-99.99,,2013-03-03 08:31:00,
2013-03-03 00:41:00,45.0,27.0,-100.00,SW,216,7.0,13.0,50,-99.99,,,-99.99,,2013-03-03 08:41:00,
2013-03-03 00:54:00,45.0,28.0,-100.00,SW,215,8.0,15.0,52,-99.99,,,-99.99,,2013-03-03 08:54:00,
2013-03-03 01:01:00,44.0,28.0,-100.00,SW,216,7.0,15.0,53,-99.99,,,-99.99,,2013-03-03 09:01:00,
2013-03-03 01:11:00,44.0,28.0,-100.00,SW,216,7.0,15.0,53,-99.99,,,-99.99,,2013-03-03 09:11:00,
2013-03-03 01:21:00,44.0,28.0,-100.00,SW,216,7.0,15.0,53,-99.99,,,-99.99,,2013-03-03 09:21:00,
2013-03-03 01:42:00,40.0,35.0,-100.00,SW,215,8.0,14.0,82,-99.99,,,-99.99,,2013-03-03 09:42:00,
2013-03-03 01:52:00,40.0,35.0,-100.00,SW,215,8.0,14.0,82,-99.99,,,-99.99,,2013-03-03 09:52:00,
2013-03-03 02:01:00,40.0,35.0,-100.00,SW,215,8.0,14.0,82,-99.99,,,-99.99,,2013-03-03 10:01:00,
2013-03-03 02:11:00,40.0,34.0,-100.00,WSW,239,12.0,25.0,79,-99.99,,,-99.99,,2013-03-03 10:11:00,
2013-03-03 02:21:00,41.0,33.0,-100.00,SW,229,8.0,17.0,74,-99.99,,,-99.99,,2013-03-03 10:21:00,
2013-03-03 02:32:00,41.0,33.0,-100.00,SW,229,8.0,17.0,74,-99.99,,,-99.99,,2013-03-03 10:32:00,
2013-03-03 02:42:00,41.0,33.0,-100.00,WSW,250,7.0,14.0,73,-99.99,,,-99.99,,2013-03-03 10:42:00,
2013-03-03 02:52:00,41.0,33.0,-100.00,WSW,250,7.0,14.0,73,-99.99,,,-99.99,,2013-03-03 10:52:00,
2013-03-03 03:01:00,39.0,34.0,-100.00,SW,224,3.0,6.0,83,-99.99,,,-99.99,,2013-03-03 11:01:00,
2013-03-03 03:11:00,39.0,34.0,-100.00,SW,224,3.0,6.0,83,-99.99,,,-99.99,,2013-03-03 11:11:00,
2013-03-03 03:21:00,39.0,34.0,-100.00,SW,224,3.0,6.0,83,-99.99,,,-99.99,,2013-03-03 11:21:00,
2013-03-03 03:42:00,39.0,35.0,-100.00,SSW,200,3.0,9.0,87,-99.99,,,-99.99,,2013-03-03 11:42:00,
2013-03-03 03:52:00,39.0,35.0,-100.00,SSW,200,3.0,9.0,87,-99.99,,,-99.99,,2013-03-03 11:52:00,
2013-03-03 04:01:00,39.0,35.0,-100.00,South,172,3.0,13.0,84,-99.99,,,-99.99,,2013-03-03 12:01:00,
2013-03-03 04:11:00,39.0,35.0,-100.00,South,172,3.0,13.0,84,-99.99,,,-99.99,,2013-03-03 12:11:00,
2013-03-03 04:21:00,39.0,35.0,-100.00,South,172,3.0,13.0,84,-99.99,,,-99.99,,2013-03-03 12:21:00,
2013-03-03 04:32:00,38.0,35.0,-100.00,NE,42,1.0,9.0,88,-99.99,,,-99.99,,2013-03-03 12:32:00,
2013-03-03 04:42:00,38.0,35.0,-100.00,NE,42,1.0,9.0,88,-99.99,,,-99.99,,2013-03-03 12:42:00,
2013-03-03 04:53:00,39.0,34.0,-100.00,SW,226,7.0,17.0,83,-99.99,,,-99.99,,2013-03-03 12:53:00,
2013-03-03 05:01:00,39.0,34.0,-100.00,SW,226,7.0,17.0,83,-99.99,,,-99.99,,2013-03-03 13:01:00,
2013-03-03 05:11:00,39.0,33.0,-100.00,SW,223,8.0,19.0,79,-99.99,,,-99.99,,2013-03-03 13:11:00,
2013-03-03 05:21:00,39.0,33.0,-100.00,SW,223,8.0,19.0,79,-99.99,,,-99.99,,2013-03-03 13:21:00,
2013-03-03 05:32:00,40.0,32.0,-100.00,WSW,244,10.0,19.0,74,-99.99,,,-99.99,,2013-03-03 13:32:00,
2013-03-03 05:42:00,40.0,32.0,-100.00,WSW,244,10.0,19.0,74,-99.99,,,-99.99,,2013-03-03 13:42:00,
2013-03-03 05:51:00,40.0,32.0,-100.00,WSW,244,10.0,19.0,74,-99.99,,,-99.99,,2013-03-03 13:51:00,
2013-03-03 06:11:00,41.0,32.0,-100.00,West,263,6.0,13.0,71,-99.99,,,-99.99,,2013-03-03 14:11:00,
2013-03-03 06:20:00,39.0,33.0,-100.00,WSW,237,4.0,11.0,80,-99.99,,,-99.99,,2013-03-03 14:20:00,
2013-03-03 06:21:00,41.0,32.0,-100.00,West,263,6.0,13.0,71,-99.99,,,-99.99,,2013-03-03 14:21:00,
2013-03-03 06:31:00,40.0,33.0,-100.00,WSW,244,5.0,10.0,75,-99.99,,,-99.99,,2013-03-03 14:31:00,
2013-03-03 06:42:00,40.0,33.0,-100.00,WSW,244,5.0,10.0,75,-99.99,,,-99.99,,2013-03-03 14:42:00,
2013-03-03 06:52:00,39.0,33.0,-100.00,WSW,237,4.0,11.0,80,-99.99,,,-99.99,,2013-03-03 14:52:00,
2013-03-03 07:01:00,39.0,33.0,-100.00,WSW,237,4.0,11.0,80,-99.99,,,-99.99,,2013-03-03 15:01:00,
2013-03-03 07:11:00,39.0,33.0,-100.00,WSW,237,4.0,11.0,80,-99.99,,,-99.99,,2013-03-03 15:11:00,
2013-03-03 07:32:00,38.0,33.0,-100.00,SW,222,4.0,8.0,83,-99.99,,,-99.99,,2013-03-03 15:32:00,
2013-03-03 07:42:00,38.0,33.0,-100.00,SW,222,4.0,8.0,83,-99.99,,,-99.99,,2013-03-03 15:42:00,
2013-03-03 07:52:00,38.0,34.0,-100.00,SW,230,5.0,12.0,86,-99.99,,,-99.99,,2013-03-03 15:52:00,
2013-03-03 08:01:00,38.0,34.0,-100.00,SW,230,5.0,12.0,86,-99.99,,,-99.99,,2013-03-03 16:01:00,
2013-03-03 08:12:00,38.0,34.0,-100.00,SW,230,5.0,12.0,86,-99.99,,,-99.99,,2013-03-03 16:12:00,
2013-03-03 08:21:00,38.0,34.0,-100.00,SW,230,5.0,12.0,86,-99.99,,,-99.99,,2013-03-03 16:21:00,
2013-03-03 08:42:00,39.0,34.0,-100.00,WSW,251,8.0,15.0,81,-99.99,,,-99.99,,2013-03-03 16:42:00,
2013-03-03 08:52:00,39.0,34.0,-100.00,WSW,251,8.0,15.0,81,-99.99,,,-99.99,,2013-03-03 16:52:00,
2013-03-03 09:01:00,40.0,33.0,-100.00,WSW,244,7.0,14.0,75,-99.99,,,-99.99,,2013-03-03 17:01:00,
2013-03-03 09:11:00,40.0,33.0,-100.00,WSW,244,7.0,14.0,75,-99.99,,,-99.99,,2013-03-03 17:11:00,
2013-03-03 09:22:00,39.0,33.0,-100.00,SW,226,5.0,14.0,80,-99.99,,,-99.99,,2013-03-03 17:22:00,
2013-03-03 09:32:00,39.0,33.0,-100.00,SW,226,5.0,14.0,80,-99.99,,,-99.99,,2013-03-03 17:32:00,
2013-03-03 09:42:00,39.0,33.0,-100.00,WSW,244,6.0,9.0,80,-99.99,,,-99.99,,2013-03-03 17:42:00,
2013-03-03 09:52:00,39.0,33.0,-100.00,WSW,244,6.0,9.0,80,-99.99,,,-99.99,,2013-03-03 17:52:00,
2013-03-03 10:01:00,39.0,35.0,-100.00,SSW,195,2.0,5.0,86,-99.99,,,-99.99,,2013-03-03 18:01:00,
2013-03-03 10:11:00,39.0,35.0,-100.00,SSW,195,2.0,5.0,86,-99.99,,,-99.99,,2013-03-03 18:11:00,
2013-03-03 10:21:00,39.0,35.0,-100.00,SSW,195,2.0,5.0,86,-99.99,,,-99.99,,2013-03-03 18:21:00,
2013-03-03 10:31:00,40.0,35.0,-100.00,ESE,121,1.0,4.0,84,-99.99,,,-99.99,,2013-03-03 18:31:00,
2013-03-03 10:42:00,39.0,35.0,-100.00,NNE,25,3.0,7.0,86,-99.99,,,-99.99,,2013-03-03 18:42:00,
2013-03-03 10:52:00,39.0,35.0,-100.00,NNE,25,3.0,7.0,86,-99.99,,,-99.99,,2013-03-03 18:52:00,
2013-03-03 11:01:00,39.0,35.0,-100.00,NNE,25,3.0,7.0,86,-99.99,,,-99.99,,2013-03-03 19:01:00,
2013-03-03 11:11:00,38.0,35.0,-100.00,North,4,6.0,10.0,88,-99.99,,,-99.99,,2013-03-03 19:11:00,
2013-03-03 11:21:00,38.0,35.0,-100.00,North,4,6.0,10.0,88,-99.99,,,-99.99,,2013-03-03 19:21:00,
2013-03-03 11:31:00,38.0,35.0,-100.00,North,11,7.0,11.0,87,-99.99,,,-99.99,,2013-03-03 19:31:00,
2013-03-03 11:42:00,38.0,35.0,-100.00,North,11,7.0,11.0,87,-99.99,,,-99.99,,2013-03-03 19:42:00,
2013-03-03 11:52:00,38.0,34.0,-100.00,North,11,6.0,10.0,87,-99.99,,,-99.99,,2013-03-03 19:52:00,
2013-03-03 12:01:00,38.0,34.0,-100.00,North,11,6.0,10.0,87,-99.99,,,-99.99,,2013-03-03 20:01:00,
2013-03-03 12:11:00,38.0,34.0,-100.00,North,11,6.0,10.0,87,-99.99,,,-99.99,,2013-03-03 20:11:00,
2013-03-03 12:32:00,38.0,35.0,-100.00,NNE,16,7.0,11.0,88,-99.99,,,-99.99,,2013-03-03 20:32:00,
2013-03-03 12:42:00,38.0,35.0,-100.00,NNE,16,7.0,11.0,88,-99.99,,,-99.99,,2013-03-03 20:42:00,
2013-03-03 12:53:00,39.0,36.0,-100.00,NNE,17,6.0,9.0,89,-99.99,,,-99.99,,2013-03-03 20:53:00,
2013-03-03 13:01:00,39.0,36.0,-100.00,NE,34,5.0,9.0,90,-99.99,,,-99.99,,2013-03-03 21:01:00,
2013-03-03 13:11:00,39.0,36.0,-100.00,NE,34,5.0,9.0,90,-99.99,,,-99.99,,2013-03-03 21:11:00,
2013-03-03 13:21:00,38.0,36.0,-100.00,NNE,20,5.0,9.0,91,-99.99,,,-99.99,,2013-03-03 21:21:00,
2013-03-03 13:32:00,38.0,36.0,-100.00,NNE,20,5.0,9.0,91,-99.99,,,-99.99,,2013-03-03 21:32:00,
2013-03-03 13:41:00,38.0,36.0,-100.00,NNE,20,5.0,9.0,91,-99.99,,,-99.99,,2013-03-03 21:41:00,
2013-03-03 13:52:00,38.0,35.0,-100.00,North,1,7.0,11.0,87,-99.99,,,-99.99,,2013-03-03 21:52:00,
2013-03-03 14:01:00,39.0,35.0,-100.00,NNE,13,7.0,11.0,87,-99.99,,,-99.99,,2013-03-03 22:01:00,
2013-03-03 14:11:00,39.0,35.0,-100.00,NNE,13,7.0,11.0,87,-99.99,,,-99.99,,2013-03-03 22:11:00,
2013-03-03 14:21:00,39.0,35.0,-100.00,NNE,13,7.0,11.0,87,-99.99,,,-99.99,,2013-03-03 22:21:00,
2013-03-03 14:42:00,40.0,36.0,-100.00,North,8,7.0,12.0,87,-99.99,,,-99.99,,2013-03-03 22:42:00,
2013-03-03 14:52:00,40.0,36.0,-100.00,North,8,7.0,12.0,87,-99.99,,,-99.99,,2013-03-03 22:52:00,
2013-03-03 15:01:00,40.0,36.0,-100.00,North,4,7.0,10.0,86,-99.99,,,-99.99,,2013-03-03 23:01:00,
2013-03-03 15:11:00,40.0,36.0,-100.00,North,4,7.0,10.0,86,-99.99,,,-99.99,,2013-03-03 23:11:00,
2013-03-03 15:21:00,39.0,35.0,-100.00,NNE,30,4.0,9.0,86,-99.99,,,-99.99,,2013-03-03 23:21:00,
2013-03-03 15:31:00,39.0,35.0,-100.00,NNE,30,4.0,9.0,86,-99.99,,,-99.99,,2013-03-03 23:31:00,
2013-03-03 15:41:00,39.0,36.0,-100.00,NNE,23,3.0,6.0,88,-99.99,,,-99.99,,2013-03-03 23:41:00,
2013-03-03 15:52:00,39.0,36.0,-100.00,NNE,23,3.0,6.0,88,-99.99,,,-99.99,,2013-03-03 23:52:00,
2013-03-03 16:01:00,39.0,36.0,-100.00,NNE,23,3.0,6.0,88,-99.99,,,-99.99,,2013-03-04 00:01:00,
2013-03-03 16:11:00,39.0,34.0,-100.00,SW,216,5.0,11.0,81,-99.99,,,-99.99,,2013-03-04 00:11:00,
2013-03-03 16:21:00,39.0,34.0,-100.00,SW,216,5.0,11.0,81,-99.99,,,-99.99,,2013-03-04 00:21:00,
2013-03-03 16:32:00,40.0,34.0,-100.00,SW,224,11.0,18.0,78,-99.99,,,-99.99,,2013-03-04 00:32:00,
2013-03-03 16:42:00,40.0,34.0,-100.00,SW,224,11.0,18.0,78,-99.99,,,-99.99,,2013-03-04 00:42:00,
2013-03-03 16:51:00,40.0,33.0,-100.00,SW,219,7.0,14.0,76,-99.99,,,-99.99,,2013-03-04 00:51:00,
2013-03-03 17:01:00,40.0,33.0,-100.00,SW,219,7.0,14.0,76,-99.99,,,-99.99,,2013-03-04 01:01:00,
2013-03-03 17:11:00,40.0,33.0,-100.00,SW,216,7.0,11.0,76,-99.99,,,-99.99,,2013-03-04 01:11:00,
2013-03-03 17:21:00,40.0,33.0,-100.00,SW,216,7.0,11.0,76,-99.99,,,-99.99,,2013-03-04 01:21:00,
2013-03-03 17:31:00,40.0,33.0,-100.00,SSW,205,5.0,9.0,77,-99.99,,,-99.99,,2013-03-04 01:31:00,
2013-03-03 17:42:00,40.0,33.0,-100.00,SSW,205,5.0,9.0,77,-99.99,,,-99.99,,2013-03-04 01:42:00,
2013-03-03 17:51:00,40.0,35.0,-100.00,SSW,203,5.0,10.0,81,-99.99,,,-99.99,,2013-03-04 01:51:00,
2013-03-03 18:01:00,40.0,35.0,-100.00,SSW,203,5.0,10.0,81,-99.99,,,-99.99,,2013-03-04 02:01:00,
2013-03-03 18:11:00,39.0,33.0,-100.00,SW,226,5.0,9.0,78,-99.99,,,-99.99,,2013-03-04 02:11:00,
2013-03-03 18:22:00,39.0,33.0,-100.00,SW,226,5.0,9.0,78,-99.99,,,-99.99,,2013-03-04 02:22:00,
2013-03-03 18:31:00,38.0,32.0,-100.00,SW,236,5.0,8.0,79,-99.99,,,-99.99,,2013-03-04 02:31:00,
2013-03-03 18:42:00,38.0,32.0,-100.00,SW,236,5.0,8.0,79,-99.99,,,-99.99,,2013-03-04 02:42:00,
2013-03-03 18:52:00,38.0,32.0,-100.00,WSW,237,5.0,8.0,80,-99.99,,,-99.99,,2013-03-04 02:52:00,
2013-03-03 19:01:00,38.0,32.0,-100.00,WSW,237,5.0,8.0,80,-99.99,,,-99.99,,2013-03-04 03:01:00,
2013-03-03 19:11:00,37.0,32.0,-100.00,WNW,287,2.0,6.0,81,-99.99,,,-99.99,,2013-03-04 03:11:00,
2013-03-03 19:21:00,37.0,33.0,-100.00,NNW,335,3.0,8.0,84,-99.99,,,-99.99,,2013-03-04 03:21:00,
2013-03-03 19:32:00,37.0,33.0,-100.00,NNW,335,3.0,8.0,84,-99.99,,,-99.99,,2013-03-04 03:32:00,
2013-03-03 19:41:00,37.0,33.0,-100.00,NNW,335,3.0,8.0,84,-99.99,,,-99.99,,2013-03-04 03:41:00,
2013-03-03 19:52:00,37.0,33.0,-100.00,NNW,340,4.0,7.0,84,-99.99,,,-99.99,,2013-03-04 03:52:00,
2013-03-03 20:01:00,37.0,33.0,-100.00,NNW,342,2.0,5.0,85,-99.99,,,-99.99,,2013-03-04 04:01:00,
2013-03-03 20:11:00,37.0,33.0,-100.00,NNW,342,2.0,5.0,85,-99.99,,,-99.99,,2013-03-04 04:11:00,
2013-03-03 20:22:00,36.0,32.0,-100.00,NNE,18,0.0,2.0,84,-99.99,,,-99.99,,2013-03-04 04:22:00,
2013-03-03 20:32:00,36.0,32.0,-100.00,NNE,18,0.0,2.0,84,-99.99,,,-99.99,,2013-03-04 04:32:00,
2013-03-03 20:42:00,36.0,32.0,-100.00,NNE,18,0.0,2.0,84,-99.99,,,-99.99,,2013-03-04 04:42:00,
2013-03-03 21:01:00,37.0,32.0,-100.00,NW,326,2.0,4.0,82,-99.99,,,-99.99,,2013-03-04 05:01:00,
2013-03-03 21:11:00,37.0,32.0,-100.00,NW,326,2.0,4.0,82,-99.99,,,-99.99,,2013-03-04 05:11:00,
2013-03-03 21:22:00,38.0,31.0,-100.00,West,261,2.0,4.0,77,-99.99,,,-99.99,,2013-03-04 05:22:00,
2013-03-03 21:31:00,38.0,31.0,-100.00,West,261,2.0,4.0,77,-99.99,,,-99.99,,2013-03-04 05:31:00,
2013-03-03 21:42:00,38.0,30.0,-100.00,NW,304,2.0,5.0,74,-99.99,,,-99.99,,2013-03-04 05:42:00,
2013-03-03 21:52:00,38.0,30.0,-100.00,NW,304,2.0,5.0,74,-99.99,,,-99.99,,2013-03-04 05:52:00,
2013-03-03 22:01:00,38.0,30.0,-100.00,NW,304,2.0,5.0,74,-99.99,,,-99.99,,2013-03-04 06:01:00,
2013-03-03 22:11:00,38.0,31.0,-100.00,West,280,0.0,2.0,77,-99.99,,,-99.99,,2013-03-04 06:11:00,
2013-03-03 22:21:00,38.0,31.0,-100.00,West,280,0.0,2.0,77,-99.99,,,-99.99,,2013-03-04 06:21:00,
2013-03-03 22:31:00,37.0,31.0,-100.00,NE,45,0.0,3.0,78,-99.99,,,-99.99,,2013-03-04 06:31:00,
2013-03-03 22:42:00,37.0,31.0,-100.00,NE,45,0.0,3.0,78,-99.99,,,-99.99,,2013-03-04 06:42:00,
2013-03-03 22:51:00,37.0,31.0,-100.00,North,0,1.0,3.0,79,-99.99,,,-99.99,,2013-03-04 06:51:00,
2013-03-03 23:01:00,37.0,31.0,-100.00,North,0,1.0,3.0,79,-99.99,,,-99.99,,2013-03-04 07:01:00,
2013-03-03 23:11:00,36.0,31.0,-100.00,NNW,328,0.0,3.0,81,-99.99,,,-99.99,,2013-03-04 07:11:00,
2013-03-03 23:21:00,36.0,31.0,-100.00,NNW,328,0.0,3.0,81,-99.99,,,-99.99,,2013-03-04 07:21:00,
2013-03-03 23:32:00,35.0,30.0,-100.00,NNE,23,0.0,3.0,82,-99.99,,,-99.99,,2013-03-04 07:32:00,
2013-03-03 23:41:00,35.0,30.0,-100.00,NNE,23,0.0,3.0,82,-99.99,,,-99.99,,2013-03-04 07:41:00,
2013-03-03 23:51:00,36.0,30.0,-100.00,NNW,332,1.0,3.0,79,-99.99,,,-99.99,,2013-03-04 07:51:00,